Location: Willis Wharf
(37.5156°N, 75.8067°W)
Time: 17:05:09
(UTC-05:00)

Hubble Space Telescope - Visible Passes

Search period start: 12 November 2018 00:00
Search period end: 22 November 2018 00:00
Orbit: 537 x 540 km, 28.5° (Epoch: 11 November)

Date Brightness Start Highest point End Pass type
(mag) Time Alt. Az. Time Alt. Az. Time Alt. Az.
12 Nov 3.2 18:42:48 10° SW 18:45:11 15° SSW 18:46:49 12° S visible
13 Nov 3.4 18:32:45 10° SW 18:34:39 13° SSW 18:36:33 10° S visible
14 Nov 3.6 18:23:06 10° SW 18:24:05 11° SSW 18:25:05 10° S visible
